| time (UTC) | temp F | wind direction | speed knots | gust knots | rain 1hr in | rain 24hr in | rain mn in | humidity % | barometer mb |
| 20260504204504 | 75 | 299 | 4.3 | 7.0 | 0.00 | 0.00 | 0.00 | 35 | 1010.7 |
| 20260504204004 | 76 | 315 | 4.3 | 11.3 | 0.00 | 0.00 | 0.00 | 35 | 1010.7 |
| 20260504203505 | 76 | 18 | 4.3 | 11.3 | 0.00 | 0.00 | 0.00 | 32 | 1010.7 |
| 20260504203004 | 75 | 136 | 4.3 | 7.0 | 0.00 | 0.00 | 0.00 | 34 | 1010.7 |
| 20260504202504 | 75 | 11 | 4.3 | 10.4 | 0.00 | 0.00 | 0.00 | 33 | 1010.7 |
| 20260504202006 | 75 | 291 | 4.3 | 10.4 | 0.00 | 0.00 | 0.00 | 34 | 1010.7 |
| 20260504201504 | 74 | 58 | 4.3 | 7.8 | 0.00 | 0.00 | 0.00 | 32 | 1010.8 |
| 20260504201003 | 73 | 0 | 4.3 | 10.4 | 0.00 | 0.00 | 0.00 | 35 | 1010.8 |
| 20260504195504 | 73 | 338 | 5.2 | 13.0 | 0.00 | 0.00 | 0.00 | 36 | 1010.8 |
| 20260504195004 | 73 | 328 | 5.2 | 7.8 | 0.00 | 0.00 | 0.00 | 38 | 1010.8 |
| 20260504194503 | 72 | 324 | 1.7 | 1.7 | 0.00 | 0.00 | 0.00 | 40 | 1011.2 |
| 20260504194004 | 72 | 324 | 1.7 | 1.7 | 0.00 | 0.00 | 0.00 | 40 | 1011.2 |
| 20260504193506 | 72 | 324 | 1.7 | 4.3 | 0.00 | 0.00 | 0.00 | 40 | 1011.2 |
| 20260504193004 | 72 | 173 | 1.7 | 5.2 | 0.00 | 0.00 | 0.00 | 40 | 1011.2 |
| 20260504192504 | 71 | 20 | 2.6 | 2.6 | 0.00 | 0.00 | 0.00 | 41 | 1011.2 |
| 20260504192004 | 71 | 20 | 2.6 | 2.6 | 0.00 | 0.00 | 0.00 | 41 | 1011.2 |
| 20260504191504 | 71 | 20 | 2.6 | 5.2 | 0.00 | 0.00 | 0.00 | 41 | 1011.4 |
| 20260504191004 | 71 | 317 | 2.6 | 5.2 | 0.00 | 0.00 | 0.00 | 41 | 1011.4 |
| 20260504185004 | 73 | 319 | 4.3 | 7.0 | 0.00 | 0.00 | 0.00 | 40 | 1011.4 |
| 20260504184503 | 72 | 357 | 1.7 | 7.8 | 0.00 | 0.00 | 0.00 | 41 | 1011.5 |
| 20260504184004 | 72 | 348 | 2.6 | 7.8 | 0.00 | 0.00 | 0.00 | 41 | 1011.5 |
| 20260504183504 | 72 | 348 | 2.6 | 7.8 | 0.00 | 0.00 | 0.00 | 41 | 1011.5 |
| 20260504183003 | 72 | 348 | 2.6 | 7.8 | 0.00 | 0.00 | 0.00 | 41 | 1011.7 |
| 20260504182003 | 71 | 123 | 4.3 | 6.1 | 0.00 | 0.00 | 0.00 | 37 | 1011.7 |
| 20260504181003 | 72 | 308 | 4.3 | 8.7 | 0.00 | 0.00 | 0.00 | 39 | 1011.7 |
| 20260504180504 | 71 | 286 | 2.6 | 8.7 | 0.00 | 0.00 | 0.00 | 40 | 1011.7 |
| 20260504180004 | 70 | 309 | 2.6 | 5.2 | 0.00 | 0.00 | 0.00 | 39 | 1011.8 |
| 20260504175505 | 70 | 27 | 4.3 | 5.2 | 0.00 | 0.00 | 0.00 | 41 | 1011.8 |
| 20260504175004 | 69 | 291 | 4.3 | 5.2 | 0.00 | 0.00 | 0.00 | 43 | 1011.8 |
| 20260504174004 | 69 | 303 | 4.3 | 7.0 | 0.00 | 0.00 | 0.00 | 44 | 1011.9 |
| 20260504173004 | 69 | 190 | 2.6 | 13.0 | 0.00 | 0.00 | 0.00 | 41 | 1012.0 |
| 20260504172503 | 69 | 330 | 2.6 | 7.0 | 0.00 | 0.00 | 0.00 | 43 | 1012.0 |
| 20260504171506 | 68 | 301 | 2.6 | 5.2 | 0.00 | 0.00 | 0.00 | 44 | 1012.0 |
| 20260504171004 | 68 | 214 | 2.6 | 7.8 | 0.00 | 0.00 | 0.00 | 44 | 1012.0 |
| 20260504170504 | 68 | 253 | 2.6 | 6.1 | 0.00 | 0.00 | 0.00 | 43 | 1012.0 |
| 20260504151004 | 54 | 146 | 0.0 | 0.0 | 0.00 | 0.00 | 0.00 | 75 | 1012.4 |
| 20260504150506 | 54 | 146 | 0.0 | 0.0 | 0.00 | 0.00 | 0.00 | 75 | 1012.4 |
| 20260504141006 | 43 | 25 | 0.0 | 0.0 | 0.00 | 0.00 | 0.00 | 90 | 1012.2 |
| 20260504130505 | 41 | 0 | 0.0 | 0.0 | 0.00 | 0.00 | 0.00 | 88 | 1011.9 |
| 20260504110504 | 45 | 150 | 0.0 | 0.0 | 0.00 | 0.00 | 0.00 | 81 | 1012.0 |
| 20260504100504 | 47 | 102 | 0.0 | 0.0 | 0.00 | 0.00 | 0.00 | 77 | 1011.9 |
| 20260504082004 | 54 | 0 | 0.9 | 0.0 | 0.00 | 0.00 | 0.00 | 67 | 1012.0 |
| 20260504081505 | 55 | 359 | 0.9 | 1.7 | 0.00 | 0.00 | 0.00 | 66 | 1012.0 |
| 20260504081006 | 56 | 359 | 0.9 | 2.6 | 0.00 | 0.00 | 0.00 | 65 | 1012.0 |
| 20260504080505 | 56 | 357 | 1.7 | 2.6 | 0.00 | 0.00 | 0.00 | 64 | 1012.0 |
| 20260504050503 | 62 | 327 | 2.6 | 8.7 | 0.00 | 0.00 | 0.00 | 52 | 1011.8 |
| 20260504050005 | 62 | 344 | 2.6 | 8.7 | 0.00 | 0.00 | 0.00 | 51 | 1011.7 |
| 20260504045504 | 62 | 14 | 4.3 | 4.3 | 0.00 | 0.00 | 0.00 | 50 | 1011.7 |
| 20260504045004 | 62 | 14 | 4.3 | 4.3 | 0.00 | 0.00 | 0.00 | 50 | 1011.7 |
| 20260504044004 | 62 | 10 | 4.3 | 8.7 | 0.00 | 0.00 | 0.00 | 50 | 1011.7 |
| 20260504043504 | 62 | 349 | 5.2 | 8.7 | 0.00 | 0.00 | 0.00 | 49 | 1011.7 |
| 20260504043004 | 63 | 357 | 5.2 | 8.7 | 0.00 | 0.00 | 0.00 | 48 | 1011.6 |
| 20260504042504 | 63 | 343 | 4.3 | 10.4 | 0.00 | 0.00 | 0.00 | 48 | 1011.6 |
| 20260504042005 | 63 | 2 | 4.3 | 8.7 | 0.00 | 0.00 | 0.00 | 49 | 1011.6 |
| 20260504041504 | 63 | 339 | 5.2 | 7.8 | 0.00 | 0.00 | 0.00 | 49 | 1011.4 |
| 20260504041004 | 64 | 347 | 5.2 | 7.8 | 0.00 | 0.00 | 0.00 | 48 | 1011.4 |
| 20260504040504 | 65 | 324 | 5.2 | 11.3 | 0.00 | 0.00 | 0.00 | 46 | 1011.4 |
| 20260504040005 | 65 | 330 | 5.2 | 8.7 | 0.00 | 0.00 | 0.00 | 44 | 1011.5 |
| 20260504035504 | 65 | 354 | 5.2 | 7.8 | 0.00 | 0.00 | 0.00 | 44 | 1011.5 |
| 20260504035006 | 65 | 0 | 5.2 | 12.2 | 0.00 | 0.00 | 0.00 | 44 | 1011.5 |
| 20260504034503 | 65 | 17 | 5.2 | 13.0 | 0.00 | 0.00 | 0.00 | 45 | 1011.7 |
| 20260504034003 | 64 | 0 | 0.0 | 5.2 | 0.00 | 0.00 | 0.00 | 47 | 1011.7 |
| 20260504033504 | 64 | 16 | 7.8 | 5.2 | 0.00 | 0.00 | 0.00 | 47 | 1011.7 |
| 20260504033004 | 64 | 16 | 7.8 | 5.2 | 0.00 | 0.00 | 0.00 | 47 | 1011.2 |
| 20260504032505 | 64 | 16 | 7.8 | 13.0 | 0.00 | 0.00 | 0.00 | 47 | 1011.2 |
| 20260504032004 | 64 | 25 | 7.8 | 18.2 | 0.00 | 0.00 | 0.00 | 47 | 1011.2 |
| 20260504031003 | 64 | 34 | 7.0 | 12.2 | 0.00 | 0.00 | 0.00 | 48 | 1011.4 |
| 20260504030504 | 64 | 7 | 5.2 | 14.8 | 0.00 | 0.00 | 0.00 | 48 | 1011.4 |
| 20260504030004 | 64 | 10 | 5.2 | 11.3 | 0.00 | 0.00 | 0.00 | 49 | 1011.8 |
| 20260504024505 | 64 | 29 | 2.6 | 7.8 | 0.00 | 0.02 | 0.00 | 49 | 1011.9 |
| 20260504024003 | 64 | 13 | 2.6 | 6.1 | 0.00 | 0.02 | 0.00 | 51 | 1011.9 |
| 20260504023506 | 64 | 354 | 2.6 | 5.2 | 0.00 | 0.02 | 0.00 | 52 | 1011.9 |
| 20260504023004 | 64 | 322 | 2.6 | 6.1 | 0.00 | 0.02 | 0.00 | 53 | 1011.7 |
| 20260504022505 | 65 | 329 | 2.6 | 4.3 | 0.00 | 0.02 | 0.00 | 52 | 1011.7 |
| 20260504022004 | 65 | 324 | 2.6 | 7.0 | 0.00 | 0.02 | 0.00 | 52 | 1011.7 |
| 20260504021504 | 65 | 343 | 4.3 | 6.1 | 0.00 | 0.02 | 0.00 | 52 | 1011.6 |
| 20260504021005 | 65 | 344 | 4.3 | 6.1 | 0.00 | 0.02 | 0.00 | 52 | 1011.6 |
| 20260504020505 | 65 | 334 | 2.6 | 7.0 | 0.00 | 0.02 | 0.00 | 52 | 1011.6 |
| 20260504015504 | 65 | 355 | 4.3 | 6.1 | 0.00 | 0.02 | 0.00 | 52 | 1011.6 |
| 20260504015005 | 65 | 337 | 4.3 | 5.2 | 0.00 | 0.02 | 0.00 | 52 | 1011.6 |
| 20260504014503 | 65 | 338 | 4.3 | 6.1 | 0.00 | 0.02 | 0.00 | 53 | 1011.5 |
| 20260504014004 | 65 | 348 | 4.3 | 7.0 | 0.00 | 0.02 | 0.00 | 53 | 1011.5 |
| 20260504013007 | 66 | 324 | 4.3 | 4.3 | 0.00 | 0.02 | 0.00 | 48 | 1011.5 |
| 20260504012504 | 66 | 324 | 4.3 | 4.3 | 0.00 | 0.02 | 0.00 | 48 | 1011.5 |
| 20260504012005 | 66 | 324 | 4.3 | 4.3 | 0.00 | 0.02 | 0.00 | 48 | 1011.5 |
| 20260504011504 | 67 | 327 | 4.3 | 6.1 | 0.00 | 0.02 | 0.00 | 48 | 1011.5 |
| 20260504011004 | 67 | 349 | 4.3 | 6.1 | 0.00 | 0.02 | 0.00 | 48 | 1011.5 |
| 20260504010004 | 67 | 338 | 4.3 | 5.2 | 0.00 | 0.02 | 0.00 | 48 | 1011.6 |
| 20260504005506 | 67 | 330 | 1.7 | 7.0 | 0.00 | 0.02 | 0.00 | 48 | 1011.6 |
| 20260504004504 | 67 | 344 | 4.3 | 4.3 | 0.00 | 0.02 | 0.00 | 48 | 1011.8 |
| 20260504004005 | 68 | 327 | 4.3 | 7.0 | 0.00 | 0.02 | 0.00 | 48 | 1011.8 |
| 20260504003504 | 68 | 319 | 1.7 | 7.0 | 0.00 | 0.02 | 0.00 | 50 | 1011.8 |
| 20260504002503 | 67 | 0 | 0.9 | 4.3 | 0.00 | 0.02 | 0.00 | 48 | 1011.7 |
| 20260504002004 | 67 | 182 | 1.7 | 4.3 | 0.00 | 0.02 | 0.00 | 48 | 1011.7 |
| 20260504001004 | 67 | 182 | 1.7 | 6.1 | 0.00 | 0.02 | 0.00 | 48 | 1011.9 |
| 20260503235504 | 67 | 210 | 4.3 | 5.2 | 0.00 | 0.02 | 0.00 | 46 | 1012.2 |
| 20260503235005 | 67 | 197 | 4.3 | 7.0 | 0.00 | 0.02 | 0.00 | 46 | 1012.2 |
| 20260503234504 | 68 | 147 | 1.7 | 7.8 | 0.00 | 0.02 | 0.00 | 45 | 1012.5 |
| 20260503234004 | 68 | 198 | 1.7 | 7.0 | 0.00 | 0.02 | 0.00 | 44 | 1012.5 |
| 20260503233503 | 68 | 152 | 1.7 | 4.3 | 0.00 | 0.02 | 0.00 | 45 | 1012.5 |
| 20260503233004 | 67 | 275 | 1.7 | 2.6 | 0.00 | 0.02 | 0.00 | 46 | 1012.4 |
| 20260503232503 | 66 | 0 | 0.0 | 1.7 | 0.00 | 0.02 | 0.00 | 50 | 1012.4 |
| 20260503231504 | 66 | 239 | 1.7 | 1.7 | 0.00 | 0.02 | 0.00 | 50 | 1012.3 |
| 20260503231004 | 66 | 239 | 1.7 | 4.3 | 0.00 | 0.02 | 0.00 | 50 | 1012.3 |
| 20260503230504 | 66 | 303 | 2.6 | 4.3 | 0.00 | 0.02 | 0.00 | 49 | 1012.3 |
| 20260503230004 | 66 | 300 | 2.6 | 4.3 | 0.00 | 0.02 | 0.00 | 50 | 1012.6 |
| 20260503225505 | 66 | 321 | 4.3 | 5.2 | 0.00 | 0.02 | 0.00 | 49 | 1012.6 |
| 20260503225004 | 66 | 290 | 4.3 | 7.0 | 0.00 | 0.02 | 0.00 | 49 | 1012.6 |
| 20260503224506 | 66 | 328 | 2.6 | 7.0 | 0.00 | 0.02 | 0.00 | 50 | 1013.1 |
| 20260503224004 | 66 | 301 | 2.6 | 6.1 | 0.00 | 0.02 | 0.00 | 49 | 1013.1 |
| 20260503223505 | 67 | 321 | 4.3 | 7.0 | 0.00 | 0.02 | 0.00 | 50 | 1013.1 |
| 20260503222504 | 67 | 49 | 2.6 | 4.3 | 0.00 | 0.02 | 0.00 | 50 | 1013.4 |
| 20260503222005 | 67 | 49 | 2.6 | 4.3 | 0.00 | 0.02 | 0.00 | 50 | 1013.4 |
| 20260503221503 | 67 | 49 | 2.6 | 4.3 | 0.00 | 0.02 | 0.00 | 50 | 1013.4 |
| 20260503221004 | 67 | 0 | 2.6 | 10.4 | 0.00 | 0.02 | 0.00 | 47 | 1013.4 |
| 20260503220004 | 68 | 320 | 4.3 | 13.0 | 0.00 | 0.02 | 0.00 | 47 | 1013.3 |
| 20260503215004 | 69 | 354 | 4.3 | 8.7 | 0.00 | 0.02 | 0.00 | 43 | 1013.3 |
| 20260503214506 | 70 | 23 | 6.1 | 7.8 | 0.00 | 0.02 | 0.00 | 40 | 1012.8 |
| 20260503214003 | 71 | 61 | 6.1 | 13.0 | 0.00 | 0.02 | 0.00 | 39 | 1012.8 |
| 20260503213505 | 71 | 120 | 6.1 | 10.4 | 0.00 | 0.02 | 0.00 | 39 | 1012.8 |
| 20260503213004 | 72 | 0 | 2.6 | 7.8 | 0.00 | 0.02 | 0.00 | 39 | 1012.6 |
| 20260503212505 | 72 | 156 | 5.2 | 7.8 | 0.00 | 0.02 | 0.00 | 39 | 1012.6 |
| 20260503210506 | 73 | 140 | 4.3 | 7.8 | 0.00 | 0.02 | 0.00 | 38 | 1012.5 |
| 20260503210004 | 74 | 176 | 0.9 | 6.1 | 0.00 | 0.02 | 0.00 | 37 | 1012.6 |
| 20260503205004 | 74 | 192 | 4.3 | 4.3 | 0.00 | 0.02 | 0.00 | 35 | 1012.6 |